Observations for Trim Patrick St
| Time | AQI | Temp °C | Hum % | Pres Pa | CO μg/m³ | H₂S μg/m³ | NO μg/m³ | NO₂ μg/m³ | O₃ μg/m³ | SO₂ μg/m³ | PM1 μg/m³ | PM2.5 μg/m³ | PM10 μg/m³ |
|---|---|---|---|---|---|---|---|---|---|---|---|---|---|
| Sunday 9 August 2026 | |||||||||||||
| 06:07 | 2 | 18.2 | 71 | 11,753 | 0.07 | 3.36 | 1.86 | 12.82 | 38.41 | 1.04 | 5.43 | 10.85 | 11.93 |
| 06:06 | 2 | 18.2 | 71 | 9,048 | 0.06 | 4.54 | 1.89 | 21.67 | 40.71 | 0.67 | 5.43 | 10.14 | 11.15 |
| 06:03 | 2 | 18.2 | 71 | 114,146 | 0.06 | 3.49 | 1.83 | 12.68 | 38.9 | 1.04 | 5.43 | 10.15 | 11.16 |
| 06:02 | 2 | 18.2 | 70 | 111,983 | 0.08 | 5.8 | 1.95 | 28.37 | 53.29 | 0.98 | 7.14 | 11.62 | 12.78 |
| 05:58 | 2 | 18.2 | 70 | 105,834 | 0.07 | 1.92 | 1.81 | 12.02 | 38.92 | 1.32 | 4.57 | 8.72 | 9.59 |
| 05:57 | 2 | 18.2 | 70 | 104,510 | 0.07 | 3.6 | 1.65 | 14.47 | 37.51 | 0.77 | 5.43 | 9.44 | 10.38 |
| 05:56 | 2 | 18.3 | 70 | 104,758 | 0.07 | 4.07 | 1.7 | 22.46 | 44.52 | 0.48 | 6.29 | 11.61 | 12.77 |
| 05:55 | 2 | 18.2 | 70 | 103,036 | 0.06 | 3.78 | 1.72 | 21.31 | 40.09 | 0.78 | 5.43 | 9.46 | 10.4 |
| 05:54 | 2 | 18.3 | 70 | 101,396 | 0.06 | 4.8 | 1.65 | 19.29 | 46.18 | 0.68 | 6.29 | 11.61 | 12.77 |
| 05:53 | 2 | 18.3 | 70 | 99,608 | 0.06 | 4.77 | 1.63 | 25.02 | 49.85 | 0.57 | 6.29 | 10.19 | 11.21 |
| 05:52 | 2 | 18.3 | 70 | 97,797 | 0.05 | 3.7 | 1.69 | 13.9 | 42.94 | 0.81 | 6.29 | 10.9 | 12 |
| 05:51 | 2 | 18.3 | 70 | 96,354 | 0.05 | 5.06 | 1.72 | 15.73 | 36.36 | 0.67 | 6.29 | 10.18 | 11.2 |
| 05:50 | 2 | 18.3 | 70 | 94,995 | 0.07 | 6.53 | 1.63 | 27.86 | 54.44 | 1.21 | 4.57 | 8.74 | 9.62 |
| 05:49 | 2 | 18.3 | 70 | 93,601 | 0.06 | 4.51 | 1.92 | 22.51 | 38.64 | 0.82 | 6.29 | 10.93 | 12.02 |
| 05:48 | 2 | 18.3 | 70 | 92,405 | 0.06 | 4.56 | 1.96 | 20.28 | 46.07 | 0.62 | 5.43 | 10.94 | 12.04 |
| 05:47 | 2 | 18.3 | 69 | 91,525 | 0.06 | 2.89 | 2.1 | 14.95 | 38.37 | 0.75 | 5.43 | 9.52 | 10.48 |
| 05:46 | 2 | 18.3 | 69 | 90,708 | 0.06 | 3.1 | 2.07 | 22.12 | 38.31 | 0.59 | 5.43 | 9.52 | 10.48 |
| 05:45 | 2 | 18.3 | 70 | 89,966 | 0.06 | 4.14 | 2.03 | 14.16 | 38.45 | 1.03 | 4.57 | 8.79 | 9.67 |
| 05:44 | 2 | 18.4 | 70 | 89,414 | 0.06 | 4.27 | 1.97 | 26.93 | 39.43 | 0.3 | 5.43 | 9.51 | 10.46 |
| 05:43 | 2 | 18.4 | 70 | 88,548 | 0.06 | 2.75 | 1.95 | 13.6 | 39.08 | 0.98 | 5.43 | 9.52 | 10.47 |